Time,TemperatureF,DewpointF,PressureIn,WindDirection,WindDirectionDegrees,WindSpeedMPH,WindSpeedGustMPH,Humidity,HourlyPrecipIn,Conditions,Clouds,dailyrainin,SolarRadiationWatts/m^2,SoftwareType,DateUTC
2013-03-28 11:52:00,56.0,44.0,-100.00,ENE,59,3.0,7.0,63,-99.99,,,0.02,535.000000,,2013-03-28 18:52:00,
2013-03-28 12:02:00,56.0,44.0,-100.00,ENE,59,3.0,7.0,63,-99.99,,,0.02,535.000000,,2013-03-28 19:02:00,
2013-03-28 12:33:00,59.0,46.0,-100.00,South,175,3.0,6.0,61,0.00,,,0.02,442.000000,,2013-03-28 19:33:00,
2013-03-28 12:42:00,59.0,46.0,-100.00,South,175,3.0,6.0,61,0.00,,,0.02,442.000000,,2013-03-28 19:42:00,
2013-03-28 12:52:00,59.0,46.0,-100.00,South,175,3.0,6.0,61,0.00,,,0.02,442.000000,,2013-03-28 19:52:00,
2013-03-28 13:02:00,59.0,46.0,-100.00,South,175,3.0,6.0,61,0.00,,,0.02,442.000000,,2013-03-28 20:02:00,
2013-03-28 13:33:00,61.0,44.0,-100.00,ESE,122,5.0,10.0,54,0.00,,,0.02,703.000000,,2013-03-28 20:33:00,
2013-03-28 13:42:00,61.0,44.0,-100.00,ESE,122,5.0,10.0,54,0.00,,,0.02,703.000000,,2013-03-28 20:42:00,
2013-03-28 13:53:00,61.0,44.0,-100.00,ESE,122,5.0,10.0,54,0.00,,,0.02,703.000000,,2013-03-28 20:53:00,
2013-03-28 14:02:00,61.0,44.0,-100.00,ESE,122,5.0,10.0,54,0.00,,,0.02,703.000000,,2013-03-28 21:02:00,
2013-03-28 14:33:00,63.0,44.0,-100.00,WSW,238,3.0,9.0,49,0.00,,,-99.99,672.000000,,2013-03-28 21:33:00,
2013-03-28 14:43:00,63.0,44.0,-100.00,WSW,238,3.0,9.0,49,0.00,,,-99.99,672.000000,,2013-03-28 21:43:00,
2013-03-28 14:53:00,63.0,44.0,-100.00,WSW,238,3.0,9.0,49,0.00,,,-99.99,672.000000,,2013-03-28 21:53:00,
2013-03-28 15:02:00,63.0,44.0,-100.00,WSW,238,3.0,9.0,49,0.00,,,-99.99,672.000000,,2013-03-28 22:02:00,
2013-03-28 15:32:00,61.0,41.0,-100.00,NNW,330,10.0,20.0,48,0.00,,,0.02,552.000000,,2013-03-28 22:32:00,
2013-03-28 15:42:00,61.0,41.0,-100.00,NNW,330,10.0,20.0,48,0.00,,,0.02,552.000000,,2013-03-28 22:42:00,
2013-03-28 15:52:00,61.0,41.0,-100.00,NNW,330,10.0,20.0,48,0.00,,,0.02,552.000000,,2013-03-28 22:52:00,
2013-03-28 16:02:00,61.0,41.0,-100.00,NNW,330,10.0,20.0,48,0.00,,,0.02,552.000000,,2013-03-28 23:02:00,
2013-03-28 16:32:00,63.0,40.0,-100.00,NW,326,4.0,11.0,42,0.00,,,0.02,455.000000,,2013-03-28 23:32:00,
2013-03-28 16:42:00,63.0,40.0,-100.00,NW,326,4.0,11.0,42,0.00,,,0.02,455.000000,,2013-03-28 23:42:00,
2013-03-28 16:52:00,63.0,40.0,-100.00,NW,326,4.0,11.0,42,0.00,,,0.02,455.000000,,2013-03-28 23:52:00,
2013-03-28 17:02:00,63.0,40.0,-100.00,NW,326,4.0,11.0,42,0.00,,,0.02,455.000000,,2013-03-29 00:02:00,
2013-03-28 17:33:00,63.0,38.0,-100.00,WNW,294,3.0,8.0,39,0.00,,,-99.99,238.000000,,2013-03-29 00:33:00,
2013-03-28 17:42:00,63.0,38.0,-100.00,WNW,294,3.0,8.0,39,0.00,,,-99.99,238.000000,,2013-03-29 00:42:00,
2013-03-28 17:52:00,63.0,38.0,-100.00,WNW,294,3.0,8.0,39,0.00,,,-99.99,238.000000,,2013-03-29 00:52:00,
2013-03-28 18:02:00,63.0,38.0,-100.00,WNW,294,3.0,8.0,39,0.00,,,-99.99,238.000000,,2013-03-29 01:02:00,
2013-03-28 18:33:00,60.0,39.0,-100.00,NE,39,7.0,12.0,46,0.00,,,-99.99,81.000000,,2013-03-29 01:33:00,
2013-03-28 18:42:00,60.0,39.0,-100.00,NE,39,7.0,12.0,46,0.00,,,-99.99,81.000000,,2013-03-29 01:42:00,
2013-03-28 18:52:00,60.0,39.0,-100.00,NE,39,7.0,12.0,46,0.00,,,-99.99,81.000000,,2013-03-29 01:52:00,
2013-03-28 19:02:00,60.0,39.0,-100.00,NE,39,7.0,12.0,46,0.00,,,-99.99,81.000000,,2013-03-29 02:02:00,
2013-03-28 19:32:00,52.0,46.0,-100.00,NNW,339,5.0,18.0,79,0.04,,,-99.99,18.000000,,2013-03-29 02:32:00,
2013-03-28 19:42:00,52.0,46.0,-100.00,NNW,339,5.0,18.0,79,0.04,,,-99.99,18.000000,,2013-03-29 02:42:00,
2013-03-28 19:52:00,52.0,46.0,-100.00,NNW,339,5.0,18.0,79,0.04,,,-99.99,18.000000,,2013-03-29 02:52:00,
2013-03-28 20:02:00,52.0,46.0,-100.00,NNW,339,5.0,18.0,79,0.04,,,-99.99,18.000000,,2013-03-29 03:02:00,
2013-03-28 20:32:00,53.0,49.0,-100.00,WNW,287,3.0,7.0,85,0.00,,,-99.99,2.000000,,2013-03-29 03:32:00,
2013-03-28 20:43:00,53.0,49.0,-100.00,WNW,287,3.0,7.0,85,0.00,,,-99.99,2.000000,,2013-03-29 03:43:00,
2013-03-28 20:53:00,53.0,49.0,-100.00,WNW,287,3.0,7.0,85,0.00,,,-99.99,2.000000,,2013-03-29 03:53:00,
2013-03-28 21:02:00,53.0,49.0,-100.00,WNW,287,3.0,7.0,85,0.00,,,-99.99,2.000000,,2013-03-29 04:02:00,
2013-03-28 21:33:00,52.0,46.0,-100.00,NW,320,5.0,9.0,81,0.00,,,-99.99,1.000000,,2013-03-29 04:33:00,
2013-03-28 21:43:00,52.0,46.0,-100.00,NW,320,5.0,9.0,81,0.00,,,-99.99,1.000000,,2013-03-29 04:43:00,
2013-03-28 21:52:00,52.0,46.0,-100.00,NW,320,5.0,9.0,81,0.00,,,-99.99,1.000000,,2013-03-29 04:52:00,
2013-03-28 22:02:00,52.0,46.0,-100.00,NW,320,5.0,9.0,81,0.00,,,-99.99,1.000000,,2013-03-29 05:02:00,
2013-03-28 22:33:00,52.0,46.0,-100.00,NW,326,3.0,7.0,80,0.00,,,-99.99,1.000000,,2013-03-29 05:33:00,
2013-03-28 22:43:00,52.0,46.0,-100.00,NW,326,3.0,7.0,80,0.00,,,-99.99,1.000000,,2013-03-29 05:43:00,
2013-03-28 22:52:00,52.0,46.0,-100.00,NW,326,3.0,7.0,80,0.00,,,-99.99,1.000000,,2013-03-29 05:52:00,
2013-03-28 23:02:00,52.0,46.0,-100.00,NW,326,3.0,7.0,80,0.00,,,-99.99,1.000000,,2013-03-29 06:02:00,
2013-03-28 23:32:00,51.0,47.0,-100.00,NNW,338,2.0,5.0,85,0.00,,,-99.99,1.000000,,2013-03-29 06:32:00,
2013-03-28 23:42:00,51.0,47.0,-100.00,NNW,338,2.0,5.0,85,0.00,,,-99.99,1.000000,,2013-03-29 06:42:00,
2013-03-28 23:52:00,51.0,47.0,-100.00,NNW,338,2.0,5.0,85,0.00,,,-99.99,1.000000,,2013-03-29 06:52:00,